FW5704 Weather Reports


Display with metric or nautical units.
time (UTC)temp
F
wind
direction
speed
MPH
gust
MPH
rain 1hr
in
rain 24hr
in
rain mn
in
humidity
%
barometer
mb
20260510211035 77 248 3.0 8.0 0.00 0.00 0.00 47 1016.7
20260510210533 76 251 2.0 10.0 0.00 0.00 0.00 47 1016.6
20260510210045 77 261 4.0 10.0 0.00 0.00 0.00 48 1016.7
20260510205534 76 254 2.0 11.0 0.00 0.00 0.00 47 1016.6
20260510205034 76 255 2.0 11.0 0.00 0.00 0.00 48 1016.7
20260510204544 76 257 4.0 11.0 0.00 0.00 0.00 47 1016.7
20260510204034 77 238 2.0 8.0 0.00 0.00 0.00 51 1016.6
20260510203534 76 236 1.0 7.0 0.00 0.00 0.00 50 1016.8
20260510203043 76 250 3.0 8.0 0.00 0.00 0.00 48 1016.8
20260510202534 77 250 2.0 8.0 0.00 0.00 0.00 49 1016.8
20260510202034 77 252 1.0 9.0 0.00 0.00 0.00 48 1017.0
20260510201547 76 252 1.0 12.0 0.00 0.00 0.00 49 1017.0
20260510201035 77 241 4.0 12.0 0.00 0.00 0.00 48 1017.1
20260510200534 77 286 3.0 11.0 0.00 0.00 0.00 47 1017.1
20260510200045 77 255 2.0 7.0 0.00 0.00 0.00 46 1017.2
20260510195534 77 254 3.0 9.0 0.00 0.00 0.00 46 1017.2
20260510195033 77 224 3.0 11.0 0.00 0.00 0.00 45 1017.3
20260510194555 76 250 4.0 11.0 0.00 0.00 0.00 44 1017.4
20260510194034 77 251 2.0 9.0 0.00 0.00 0.00 43 1017.2
20260510193538 76 53 3.0 8.0 0.00 0.00 0.00 43 1017.2
20260510193045 76 262 3.0 9.0 0.00 0.00 0.00 43 1017.3
20260510192534 77 276 4.0 9.0 0.00 0.00 0.00 42 1017.2
20260510192034 77 246 1.0 5.0 0.00 0.00 0.00 44 1017.2
20260510191541 77 261 0.0 8.0 0.00 0.00 0.00 42 1017.3
20260510191037 76 256 2.0 8.0 0.00 0.00 0.00 43 1017.4
20260510190538 77 241 3.0 9.0 0.00 0.00 0.00 43 1017.4
20260510190058 76 254 1.0 9.0 0.00 0.00 0.00 44 1017.4
20260510185534 77 260 2.0 8.0 0.00 0.00 0.00 42 1017.4
20260510185034 77 254 1.0 11.0 0.00 0.00 0.00 42 1017.5
20260510184547 76 265 1.0 11.0 0.00 0.00 0.00 44 1017.5
20260510184038 76 256 1.0 8.0 0.00 0.00 0.00 43 1017.5
20260510183534 76 0 1.0 12.0 0.00 0.00 0.00 41 1017.6
20260510183045 77 250 5.0 12.0 0.00 0.00 0.00 41 1017.5
20260510182533 76 268 2.0 7.0 0.00 0.00 0.00 43 1017.4
20260510182033 76 278 0.0 10.0 0.00 0.00 0.00 45 1017.5
20260510181544 75 250 2.0 10.0 0.00 0.00 0.00 44 1017.5
20260510181033 76 254 3.0 10.0 0.00 0.00 0.00 45 1017.5
20260510180534 76 259 1.0 6.0 0.00 0.00 0.00 49 1017.5
20260510180047 76 254 1.0 10.0 0.00 0.00 0.00 46 1017.5
20260510175536 75 259 1.0 11.0 0.00 0.00 0.00 50 1017.6
20260510175035 75 265 3.0 11.0 0.00 0.00 0.00 49 1017.6
20260510174541 75 250 3.0 8.0 0.00 0.00 0.00 50 1017.6
20260510174036 74 256 3.0 8.0 0.00 0.00 0.00 51 1017.7
20260510173534 74 262 3.0 7.0 0.00 0.00 0.00 46 1017.8
20260510173049 74 259 1.0 7.0 0.00 0.00 0.00 49 1017.6
20260510172533 75 130 2.0 10.0 0.00 0.00 0.00 48 1017.8
20260510172034 74 264 1.0 10.0 0.00 0.00 0.00 51 1017.7
20260510171545 74 162 2.0 8.0 0.00 0.00 0.00 51 1017.8
20260510171037 74 265 2.0 8.0 0.00 0.00 0.00 51 1017.8
20260510170533 74 253 1.0 6.0 0.00 0.00 0.00 48 1017.8
20260510170047 74 259 2.0 6.0 0.00 0.00 0.00 48 1017.8
20260510165536 74 243 2.0 6.0 0.00 0.00 0.00 50 1017.8
20260510165036 74 256 2.0 7.0 0.00 0.00 0.00 46 1017.8
20260510164550 74 250 2.0 7.0 0.00 0.00 0.00 48 1017.9
20260510164034 73 262 1.0 7.0 0.00 0.00 0.00 49 1017.9
20260510163535 73 263 1.0 7.0 0.00 0.00 0.00 53 1017.9
20260510163059 73 257 0.0 4.0 0.00 0.00 0.00 53 1018.0
20260510162534 73 253 0.0 4.0 0.00 0.00 0.00 52 1018.1
20260510162034 72 63 0.0 3.0 0.00 0.00 0.00 54 1018.1
20260510161558 72 0 0.0 3.0 0.00 0.00 0.00 56 1018.0
20260510161034 71 0 0.0 4.0 0.00 0.00 0.00 54 1018.1
20260510160533 71 260 0.0 6.0 0.00 0.00 0.00 56 1018.1
20260510160059 71 227 2.0 7.0 0.00 0.00 0.00 58 1018.3
20260510155535 71 254 2.0 7.0 0.00 0.00 0.00 61 1018.3
20260510155033 71 0 0.0 4.0 0.00 0.00 0.00 58 1018.4
20260510154545 70 265 1.0 6.0 0.00 0.00 0.00 59 1018.4
20260510154033 70 250 2.0 6.0 0.00 0.00 0.00 64 1018.4
20260510153534 69 228 0.0 7.0 0.00 0.00 0.00 66 1018.2
20260510153058 69 0 1.0 7.0 0.00 0.00 0.00 66 1018.2
20260510152535 69 244 0.0 5.0 0.00 0.00 0.00 66 1018.3
20260510152034 68 259 2.0 5.0 0.00 0.00 0.00 67 1018.3
20260510151550 68 0 1.0 3.0 0.00 0.00 0.00 69 1018.3
20260510151034 68 0 0.0 4.0 0.00 0.00 0.00 71 1018.5
20260510150534 67 263 2.0 4.0 0.00 0.00 0.00 71 1018.4
20260510150047 67 0 1.0 4.0 0.00 0.00 0.00 75 1018.5
20260510145533 67 259 1.0 4.0 0.00 0.00 0.00 74 1018.4
20260510145033 66 254 1.0 5.0 0.00 0.00 0.00 76 1018.5
20260510144550 66 265 1.0 5.0 0.00 0.00 0.00 78 1018.4
20260510144037 65 250 2.0 5.0 0.00 0.00 0.00 77 1018.3
20260510143533 65 262 1.0 4.0 0.00 0.00 0.00 80 1018.4
20260510143051 65 0 1.0 4.0 0.00 0.00 0.00 80 1018.4
20260510142534 65 0 0.0 4.0 0.00 0.00 0.00 81 1018.4
20260510142034 64 0 0.0 4.0 0.00 0.00 0.00 81 1018.3
20260510141552 64 0 1.0 4.0 0.00 0.00 0.00 81 1018.3
20260510141036 63 259 1.0 3.0 0.00 0.00 0.00 82 1018.3
20260510140535 63 258 1.0 7.0 0.00 0.00 0.00 84 1018.4
20260510140048 62 263 1.0 7.0 0.00 0.00 0.00 83 1018.3
20260510135537 62 253 0.0 3.0 0.00 0.00 0.00 83 1018.4
20260510135034 62 0 0.0 4.0 0.00 0.00 0.00 84 1018.3
20260510134555 61 262 0.0 4.0 0.00 0.00 0.00 85 1018.4
20260510134033 61 258 0.0 3.0 0.00 0.00 0.00 86 1018.3
20260510133535 60 0 0.0 0.0 0.00 0.00 0.00 87 1018.4
20260510133044 60 0 0.0 0.0 0.00 0.00 0.00 88 1018.3
20260510132533 59 0 0.0 0.0 0.00 0.00 0.00 90 1018.2
20260510132034 59 0 0.0 0.0 0.00 0.00 0.00 91 1018.3
20260510131545 58 0 0.0 0.0 0.00 0.00 0.00 92 1018.3
20260510131033 58 0 0.0 0.0 0.00 0.00 0.00 93 1018.2
20260510130534 57 0 0.0 0.0 0.00 0.00 0.00 94 1018.2
20260510130043 57 0 0.0 0.0 0.00 0.00 0.00 95 1018.3
20260510125533 56 0 0.0 0.0 0.00 0.00 0.00 95 1018.3
20260510125033 56 0 0.0 0.0 0.00 0.00 0.00 95 1018.4
20260510124550 55 0 0.0 0.0 0.00 0.00 0.00 95 1018.3
20260510124035 55 0 0.0 0.0 0.00 0.00 0.00 95 1018.3
20260510123534 54 0 0.0 0.0 0.00 0.00 0.00 95 1018.2
20260510123045 54 0 0.0 0.0 0.00 0.00 0.00 95 1018.2
20260510122533 54 0 0.0 0.0 0.00 0.00 0.00 95 1018.3
20260510122035 53 0 0.0 0.0 0.00 0.00 0.00 95 1018.2
20260510121545 53 0 0.0 0.0 0.00 0.00 0.00 95 1018.2
20260510121034 53 0 0.0 0.0 0.00 0.00 0.00 95 1018.3
20260510120536 53 0 0.0 0.0 0.00 0.00 0.00 95 1018.1
20260510120044 52 0 0.0 0.0 0.00 0.00 0.00 95 1018.0
20260510115533 52 0 0.0 0.0 0.00 0.00 0.00 95 1017.9
20260510115033 52 0 0.0 0.0 0.00 0.00 0.00 95 1017.8
20260510114547 52 0 0.0 0.0 0.00 0.00 0.00 94 1017.7
20260510114033 51 0 0.0 0.0 0.00 0.00 0.00 94 1017.4
20260510113533 51 0 0.0 0.0 0.00 0.00 0.00 94 1017.4
20260510113047 51 0 0.0 0.0 0.00 0.00 0.00 94 1017.4
20260510112534 51 0 0.0 0.0 0.00 0.00 0.00 94 1017.4
20260510112033 51 0 0.0 0.0 0.00 0.00 0.00 94 1017.4
20260510111553 51 0 0.0 0.0 0.00 0.00 0.00 94 1017.2
20260510111033 51 0 0.0 0.0 0.00 0.00 0.00 93 1017.2
20260510110533 51 0 0.0 0.0 0.00 0.00 0.00 94 1017.0
20260510110046 51 0 0.0 0.0 0.00 0.00 0.00 94 1017.1
20260510105534 51 0 0.0 0.0 0.00 0.00 0.00 94 1016.9
20260510105035 51 0 0.0 0.0 0.00 0.00 0.00 94 1016.8
20260510104549 51 0 0.0 0.0 0.00 0.00 0.00 93 1016.7
20260510104035 51 0 0.0 0.0 0.00 0.00 0.00 93 1016.7
20260510103533 51 0 0.0 0.0 0.00 0.00 0.00 93 1016.7
20260510103050 51 0 0.0 0.0 0.00 0.00 0.00 93 1016.6
20260510102534 51 0 0.0 0.0 0.00 0.00 0.00 93 1016.4
20260510102034 51 0 0.0 0.0 0.00 0.00 0.00 93 1016.5
20260510101546 51 0 0.0 0.0 0.00 0.00 0.00 93 1016.3
20260510101033 51 0 0.0 0.0 0.00 0.00 0.00 93 1016.3
20260510100533 52 0 0.0 0.0 0.00 0.00 0.00 93 1016.3
20260510100048 52 0 0.0 0.0 0.00 0.00 0.00 93 1016.4
20260510095533 51 0 0.0 0.0 0.00 0.00 0.00 93 1016.3
20260510095034 51 0 0.0 0.0 0.00 0.00 0.00 93 1016.3
20260510094545 51 0 0.0 0.0 0.00 0.00 0.00 93 1016.3
20260510094033 52 0 0.0 0.0 0.00 0.00 0.00 93 1016.4
20260510093533 52 0 0.0 0.0 0.00 0.00 0.00 93 1016.2
20260510093105 52 0 0.0 0.0 0.00 0.00 0.00 93 1016.3
20260510092534 52 0 0.0 0.0 0.00 0.00 0.00 93 1016.2
20260510092033 52 0 0.0 0.0 0.00 0.00 0.00 93 1016.2
20260510091544 52 0 0.0 0.0 0.00 0.00 0.00 93 1016.1
20260510091034 52 0 0.0 0.0 0.00 0.00 0.00 93 1016.0
20260510090533 52 0 0.0 0.0 0.00 0.00 0.00 93 1015.9
20260510090051 52 0 0.0 0.0 0.00 0.00 0.00 93 1015.9
20260510085533 52 0 0.0 0.0 0.00 0.00 0.00 93 1015.8
20260510085033 52 0 0.0 0.0 0.00 0.00 0.00 93 1015.7
20260510084550 52 0 0.0 0.0 0.00 0.00 0.00 93 1015.8
20260510084034 52 0 0.0 0.0 0.00 0.00 0.00 93 1015.6
20260510083536 53 0 0.0 0.0 0.00 0.00 0.00 93 1015.6
20260510083050 53 0 0.0 0.0 0.00 0.00 0.00 93 1015.6
20260510082533 53 0 0.0 0.0 0.00 0.00 0.00 93 1015.5
20260510082037 53 0 0.0 0.0 0.00 0.00 0.00 93 1015.3
20260510081621 53 0 0.0 0.0 0.00 0.00 0.00 93 1015.5
20260510081034 53 0 0.0 0.0 0.00 0.00 0.00 93 1015.4
20260510080532 53 0 0.0 0.0 0.00 0.00 0.00 93 1015.2
20260510080041 53 0 0.0 0.0 0.00 0.00 0.00 93 1015.4
20260510075534 53 0 0.0 0.0 0.00 0.00 0.00 92 1015.1
20260510075036 53 0 0.0 0.0 0.00 0.00 0.00 93 1015.1
20260510074556 53 0 0.0 0.0 0.00 0.00 0.00 92 1015.1
20260510074034 53 0 0.0 0.0 0.00 0.00 0.00 92 1015.1
20260510073532 54 0 0.0 0.0 0.00 0.00 0.00 92 1015.0
20260510073057 54 0 0.0 0.0 0.00 0.00 0.00 92 1015.1
20260510072536 54 0 0.0 0.0 0.00 0.00 0.00 92 1015.0
20260510072038 54 0 0.0 0.0 0.00 0.00 0.00 93 1015.0
20260510071545 54 0 0.0 0.0 0.00 0.00 0.00 93 1014.8
20260510071033 54 0 0.0 0.0 0.00 0.00 0.00 93 1014.7
20260510070533 54 0 0.0 0.0 0.00 0.00 0.00 92 1014.8
20260510070044 54 0 0.0 0.0 0.00 0.00 0.00 92 1014.8
20260510065533 55 0 0.0 0.0 0.00 0.00 0.00 92 1014.9
20260510065035 55 0 0.0 0.0 0.00 0.00 0.00 92 1014.9
20260510064554 55 0 0.0 0.0 0.00 0.00 0.00 92 1014.8
20260510064034 55 0 0.0 0.0 0.00 0.00 0.00 92 1014.9
20260510063534 55 0 0.0 0.0 0.00 0.00 0.00 92 1014.8
20260510063048 55 0 0.0 0.0 0.00 0.00 0.00 92 1014.7
20260510062532 55 0 0.0 0.0 0.00 0.00 0.00 92 1014.8
20260510062032 55 0 0.0 0.0 0.00 0.00 0.00 92 1014.9
20260510061549 55 0 0.0 0.0 0.00 0.00 0.00 92 1014.9
20260510061034 55 0 0.0 0.0 0.00 0.00 0.00 92 1015.0
20260510060534 55 0 0.0 0.0 0.00 0.00 0.00 92 1015.0
20260510060049 55 0 0.0 0.0 0.00 0.00 0.00 92 1015.0
20260510055533 55 0 0.0 0.0 0.00 0.00 0.00 92 1014.9
20260510055035 55 0 0.0 0.0 0.00 0.00 0.00 92 1015.0
20260510054544 55 0 0.0 0.0 0.00 0.00 0.00 92 1015.0
20260510054032 55 0 0.0 0.0 0.00 0.00 0.00 92 1015.0
20260510053534 55 0 0.0 0.0 0.00 0.00 0.00 92 1015.1
20260510053057 55 0 0.0 0.0 0.00 0.00 0.00 92 1015.3
20260510052535 55 0 0.0 0.0 0.00 0.00 0.00 92 1015.3
20260510052034 55 0 0.0 0.0 0.00 0.00 0.00 92 1015.4
20260510051556 55 0 0.0 0.0 0.00 0.00 0.00 91 1015.5
20260510051034 55 0 0.0 0.0 0.00 0.00 0.00 91 1015.5
20260510050532 55 0 0.0 0.0 0.00 0.00 0.00 91 1015.5
20260510050059 56 0 0.0 0.0 0.00 0.00 0.00 91 1015.5
20260510045533 56 0 0.0 0.0 0.00 0.00 0.00 91 1015.4
20260510045033 56 0 0.0 0.0 0.00 0.00 0.00 91 1015.4
20260510044556 56 0 0.0 0.0 0.00 0.00 0.00 91 1015.3
20260510044033 56 0 0.0 0.0 0.00 0.00 0.00 91 1015.6
20260510043534 56 0 0.0 0.0 0.00 0.00 0.00 90 1015.5
20260510043052 56 0 0.0 0.0 0.00 0.00 0.00 90 1015.6
20260510042533 56 0 0.0 0.0 0.00 0.00 0.00 90 1015.2
20260510042033 56 0 0.0 0.0 0.00 0.00 0.00 90 1015.2
20260510041545 56 0 0.0 0.0 0.00 0.00 0.00 90 1015.4
20260510041033 56 0 0.0 0.0 0.00 0.00 0.00 90 1015.3
20260510040533 57 0 0.0 0.0 0.00 0.00 0.00 90 1015.3
20260510040051 57 0 0.0 0.0 0.00 0.00 0.00 90 1015.4
20260510035532 57 0 0.0 1.0 0.00 0.00 0.00 90 1015.2
20260510035035 57 0 0.0 1.0 0.00 0.00 0.00 89 1015.2
20260510034546 57 297 0.0 1.0 0.00 0.00 0.00 89 1015.1
20260510034036 57 0 0.0 0.0 0.00 0.00 0.00 89 1015.2
20260510033533 57 0 0.0 0.0 0.00 0.00 0.00 89 1015.1
20260510033057 57 0 0.0 2.0 0.00 0.00 0.00 89 1015.1
20260510032536 57 0 0.0 2.0 0.00 0.00 0.00 89 1015.2
20260510032033 57 297 0.0 1.0 0.00 0.00 0.00 89 1015.0
20260510031548 57 297 0.0 1.0 0.00 0.00 0.00 89 1015.1
20260510031034 57 0 0.0 1.0 0.00 0.00 0.00 89 1015.0
20260510030533 57 0 0.0 1.0 0.00 0.00 0.00 88 1015.0
20260510030107 57 297 0.0 1.0 0.00 0.00 0.00 89 1015.0
20260510025533 57 0 0.0 1.0 0.00 0.00 0.00 88 1015.0
20260510025035 57 0 0.0 1.0 0.00 0.00 0.00 88 1015.1
20260510024546 57 0 0.0 1.0 0.00 0.00 0.00 88 1014.8
20260510024034 58 0 0.0 2.0 0.00 0.00 0.00 88 1014.8
20260510023532 58 0 0.0 2.0 0.00 0.00 0.00 88 1014.8
20260510023048 58 0 0.0 0.0 0.00 0.00 0.00 88 1015.0
20260510022533 58 0 0.0 0.0 0.00 0.00 0.00 87 1014.7
20260510022034 58 0 0.0 0.0 0.00 0.00 0.00 87 1014.6
20260510021544 58 0 0.0 0.0 0.00 0.00 0.00 87 1014.5
20260510021034 58 0 0.0 0.0 0.00 0.00 0.00 87 1014.6
20260510020532 58 0 0.0 0.0 0.00 0.00 0.00 86 1014.5
20260510020056 59 0 0.0 0.0 0.00 0.00 0.00 86 1014.4
20260510015533 59 0 0.0 0.0 0.00 0.00 0.00 86 1014.4
20260510015032 59 0 0.0 0.0 0.00 0.00 0.00 85 1014.4
20260510014542 59 0 0.0 0.0 0.00 0.00 0.00 85 1014.4
20260510014036 59 0 0.0 1.0 0.00 0.00 0.00 85 1014.4
20260510013533 59 0 0.0 1.0 0.00 0.00 0.00 85 1014.4
20260510013049 59 0 0.0 1.0 0.00 0.00 0.00 85 1014.2
20260510012532 59 0 0.0 1.0 0.00 0.00 0.00 84 1014.0
20260510012033 60 0 0.0 1.0 0.00 0.00 0.00 85 1014.0
20260510011545 60 0 0.0 1.0 0.00 0.00 0.00 84 1013.9
20260510011036 60 0 0.0 0.0 0.00 0.00 0.00 84 1013.8
20260510010533 60 0 0.0 0.0 0.00 0.00 0.00 83 1013.9
20260510010044 60 0 0.0 0.0 0.00 0.00 0.00 84 1013.6
20260510005532 60 0 0.0 0.0 0.00 0.00 0.00 83 1013.6
20260510005035 61 0 0.0 1.0 0.00 0.00 0.00 82 1013.6
20260510004543 61 0 0.0 1.0 0.00 0.00 0.00 82 1013.5
20260510004034 61 0 0.0 1.0 0.00 0.00 0.00 81 1013.5
20260510003534 62 0 0.0 1.0 0.00 0.00 0.00 80 1013.4
20260510003051 62 259 0.0 0.0 0.00 0.00 0.00 79 1013.4
20260510002533 63 0 0.0 0.0 0.00 0.00 0.00 78 1013.4
20260510002034 63 0 0.0 1.0 0.00 0.00 0.00 78 1013.4
20260510001547 63 0 0.0 1.0 0.00 0.00 0.00 77 1013.2
20260510001034 63 0 0.0 1.0 0.00 0.00 0.00 76 1013.2
20260510000533 64 0 0.0 1.0 0.00 0.00 0.00 76 1013.2
20260510000053 64 0 0.0 2.0 0.00 0.00 0.00 75 1013.2
20260509235535 64 0 0.0 2.0 0.00 0.00 0.00 74 1012.8
20260509235035 65 258 0.0 1.0 0.00 0.00 0.00 75 1012.8
20260509234555 65 0 0.0 4.0 0.00 0.00 0.00 74 1012.8
20260509234033 66 0 0.0 4.0 0.00 0.00 0.00 71 1012.8
20260509233535 66 257 1.0 4.0 0.00 0.00 0.00 70 1012.6
20260509233048 66 259 1.0 7.0 0.00 0.00 0.00 69 1012.4
20260509232535 66 262 2.0 7.0 0.00 0.00 0.00 68 1012.5
20260509232031 67 253 3.0 7.0 0.00 0.00 0.00 68 1012.4
20260509231543 67 257 2.0 8.0 0.00 0.00 0.00 68 1012.3
20260509231034 67 260 2.0 8.0 0.00 0.00 0.00 67 1012.3
20260509230534 67 253 2.0 9.0 0.00 0.00 0.00 67 1012.3
20260509230048 67 251 2.0 9.0 0.00 0.00 0.00 67 1012.1
20260509225533 67 252 2.0 9.0 0.00 0.00 0.00 67 1012.1
20260509225034 67 246 2.0 9.0 0.00 0.00 0.00 66 1012.0
20260509224545 67 257 1.0 8.0 0.00 0.00 0.00 67 1012.1
20260509224032 67 260 2.0 8.0 0.00 0.00 0.00 67 1012.0
20260509223533 67 251 2.0 9.0 0.00 0.00 0.00 65 1012.0
20260509223047 68 231 3.0 9.0 0.00 0.00 0.00 66 1012.0
20260509222536 67 254 1.0 9.0 0.00 0.00 0.00 67 1012.0
20260509222035 68 256 2.0 9.0 0.00 0.00 0.00 65 1012.0
20260509221541 68 265 2.0 9.0 0.00 0.00 0.00 65 1012.1
20260509221033 68 261 2.0 6.0 0.00 0.00 0.00 65 1012.1
20260509220533 68 261 2.0 9.0 0.00 0.00 0.00 64 1012.0
20260509220043 68 240 1.0 9.0 0.00 0.00 0.00 64 1012.1
20260509215533 68 263 4.0 9.0 0.00 0.00 0.00 63 1011.9
20260509215033 68 258 3.0 9.0 0.00 0.00 0.00 63 1012.0
20260509214550 68 250 2.0 9.0 0.00 0.00 0.00 62 1012.0
20260509214032 69 255 3.0 9.0 0.00 0.00 0.00 60 1011.9
20260509213532 69 249 4.0 9.0 0.00 0.00 0.00 60 1012.0
20260509213055 69 259 3.0 11.0 0.00 0.00 0.00 62 1012.2
20260509212536 69 247 4.0 11.0 0.00 0.00 0.00 60 1011.9
20260509212034 69 250 4.0 8.0 0.00 0.00 0.00 61 1011.8
20260509211543 69 234 2.0 10.0 0.00 0.00 0.00 60 1011.8